Location: Sauerland
(51.1981°N, 7.8053°E)
Time: 16:02:31
(UTC+01:00)

ISS - Pass Details

Date: 24 February 2026
Orbit: 416 x 427 km, 51.6° (Epoch: 5 March)

Event Time Altitude Azimuth Distance (km) Brightness Sun altitude
Exits shadow 06:37:04 11° 280° (W) 1,433 -1.7 -8.1°
Maximum altitude 06:40:16 77° 196° (SSW) 432 -3.7 -7.6°
Drops below altitude 10° 06:43:36 10° 109° (ESE) 1,491 0.6 -7.1°
Sets 06:45:42 0° 108° (ESE) 2,352 2.1 -6.8°
